Location: East Horndon
(51.5667°N, 0.3500°E)
Time: 09:48:14
(UTC+00:00)

Cosmos 2233 Rocket - Pass Details

Date: 08 November 2025
Orbit: 952 x 989 km, 82.9° (Epoch: 11 December)

Event Time Altitude Azimuth Distance (km) Brightness Sun altitude
Rises 05:05:10 0° 349° (N) 3,716 6.9 -18.7°
Reaches altitude 10° 05:07:42 10° 351° (N) 2,762 6.2 -18.3°
Maximum altitude 05:14:04 85° 79° (E) 996 4.0 -17.3°
Drops below altitude 10° 05:20:21 10° 170° (S) 2,727 6.5 -16.3°
Sets 05:22:51 0° 171° (S) 3,666 7.2 -16.0°
